Location: Kellogg
(38.0159°N, 90.0546°W)
Time: 15:27:28
(UTC+00:00)

Courier 1B - Visible Passes

Search period start: 13 September 2024 00:00
Search period end: 23 September 2024 00:00
Orbit: 962 x 1208 km, 28.3° (Epoch: 12 September)

Date Brightness Start Highest point End Pass type
(mag) Time Alt. Az. Time Alt. Az. Time Alt. Az.
13 Sep 9.1 00:54:12 10° WSW 01:00:58 32° SSW 01:07:42 10° SE visible
13 Sep 9.7 02:50:03 10° WSW 02:54:20 16° SSW 02:54:51 16° SSW visible
14 Sep 9.6 01:55:13 10° WSW 02:00:35 20° SSW 02:04:22 14° S visible
15 Sep 9.5 01:00:47 10° WSW 01:06:48 25° SSW 01:12:51 10° SSE visible
16 Sep 10.0 02:03:18 10° SW 02:06:19 13° SSW 02:09:21 10° S visible
17 Sep 9.9 01:08:00 10° WSW 01:12:35 17° SSW 01:17:12 10° S visible
20 Sep 10.1 00:21:18 10° SW 00:24:36 13° SSW 00:27:55 10° S visible
